FW8733 Weather Reports


time (UTC)temp
C
wind
direction
speed
KPH
gust
KPH
rain 1hr
cm
rain 24hr
cm
rain mn
cm
humidity
%
barometer
mb
20260905223421 35 224 1.6 3.2 0.00 0.00 0.00 42 1013.5
20260905222921 35 197 1.6 1.6 0.00 0.00 0.00 43 1013.6
20260905222420 36 222 0.0 0.0 0.00 0.00 0.00 41 1013.8
20260905221916 36 214 1.6 1.6 0.00 0.00 0.00 41 1013.7
20260905221413 37 188 4.8 8.0 0.00 0.00 0.00 39 1013.8
20260905220909 37 230 0.0 0.0 0.00 0.00 0.00 39 1013.8
20260905220404 37 216 1.6 3.2 0.00 0.00 0.00 41 1013.8
20260905215903 36 189 3.2 3.2 0.00 0.00 0.00 40 1013.9
20260905215359 36 162 6.4 8.0 0.00 0.00 0.00 39 1013.9
20260905214855 36 156 6.4 9.7 0.00 0.00 0.00 40 1013.8
20260905214350 36 221 3.2 3.2 0.00 0.00 0.00 40 1014.0
20260905213845 36 204 1.6 1.6 0.00 0.00 0.00 41 1013.9
20260905213342 36 217 0.0 1.6 0.00 0.00 0.00 41 1013.9
20260905212841 35 235 1.6 1.6 0.00 0.00 0.00 44 1013.9
20260905212336 35 165 4.8 8.0 0.00 0.00 0.00 43 1013.9
20260905211836 36 193 3.2 3.2 0.00 0.00 0.00 42 1013.9
20260905211331 37 289 3.2 3.2 0.00 0.00 0.00 41 1014.1
20260905210827 36 192 4.8 4.8 0.00 0.00 0.00 41 1014.1
20260905210322 36 191 0.0 1.6 0.00 0.00 0.00 42 1014.2
20260905205821 35 199 4.8 4.8 0.00 0.00 0.00 43 1014.4
20260905205316 35 197 1.6 1.6 0.00 0.00 0.00 44 1014.1
20260905204815 36 176 3.2 4.8 0.00 0.00 0.00 42 1014.3
20260905204311 36 210 8.0 12.9 0.00 0.00 0.00 41 1014.5
20260905203810 36 147 3.2 3.2 0.00 0.00 0.00 41 1014.6
20260905203306 36 184 8.0 11.3 0.00 0.00 0.00 42 1014.7
20260905202801 35 222 0.0 0.0 0.00 0.00 0.00 43 1014.9
20260905202256 35 172 6.4 8.0 0.00 0.00 0.00 43 1014.7
20260905201751 35 210 0.0 0.0 0.00 0.00 0.00 44 1015.0
20260905201246 36 206 3.2 4.8 0.00 0.00 0.00 42 1014.8
20260905200741 37 257 1.6 1.6 0.00 0.00 0.00 45 1014.9
20260905200237 36 217 0.0 1.6 0.00 0.00 0.00 42 1015.3
20260905195735 35 185 0.0 0.0 0.00 0.00 0.00 42 1015.3
20260905195230 36 201 3.2 3.2 0.00 0.00 0.00 41 1015.3
20260905194726 35 281 0.0 1.6 0.00 0.00 0.00 45 1015.4
20260905194225 35 286 4.8 4.8 0.00 0.00 0.00 47 1015.7
20260905193719 36 162 3.2 3.2 0.00 0.00 0.00 43 1015.8
20260905193214 36 213 8.0 9.7 0.00 0.00 0.00 43 1015.6
20260905192710 36 194 6.4 9.7 0.00 0.00 0.00 43 1015.7
20260905192206 36 255 4.8 4.8 0.00 0.00 0.00 42 1015.7
20260905191706 37 195 0.0 1.6 0.00 0.00 0.00 44 1015.9
20260905191204 36 183 6.4 9.7 0.00 0.00 0.00 43 1015.9
20260905190703 36 223 0.0 0.0 0.00 0.00 0.00 45 1016.1
20260905190201 36 230 0.0 0.0 0.00 0.00 0.00 45 1016.1
20260905185701 35 265 0.0 0.0 0.00 0.00 0.00 48 1016.1
20260905185155 36 196 6.4 8.0 0.00 0.00 0.00 45 1016.3
20260905184655 35 112 9.7 11.3 0.00 0.00 0.00 46 1016.3
20260905184154 35 203 1.6 1.6 0.00 0.00 0.00 45 1016.4
20260905183648 36 164 4.8 4.8 0.00 0.00 0.00 46 1016.5
20260905183143 35 247 0.0 1.6 0.00 0.00 0.00 50 1016.7
20260905182643 34 235 0.0 0.0 0.00 0.00 0.00 51 1016.7
20260905182143 35 159 1.6 3.2 0.00 0.00 0.00 47 1016.8
20260905181638 35 93 3.2 4.8 0.00 0.00 0.00 46 1017.1
20260905181137 35 185 3.2 4.8 0.00 0.00 0.00 48 1017.1
20260905180632 35 155 6.4 9.7 0.00 0.00 0.00 48 1017.3
20260905180127 34 203 1.6 4.8 0.00 0.00 0.00 50 1017.4
20260905175626 35 315 4.8 8.0 0.00 0.00 0.00 50 1017.5
20260905175122 35 225 0.0 0.0 0.00 0.00 0.00 53 1017.4
20260905174617 34 123 4.8 4.8 0.00 0.00 0.00 51 1017.6
20260905174113 33 227 3.2 3.2 0.00 0.00 0.00 54 1017.6
20260905173609 33 212 1.6 1.6 0.00 0.00 0.00 53 1017.7
20260905173104 35 170 3.2 3.2 0.00 0.00 0.00 51 1018.1
20260905172603 35 166 4.8 4.8 0.00 0.00 0.00 51 1017.9
20260905172058 35 133 8.0 9.7 0.00 0.00 0.00 52 1017.8
20260905171554 35 224 3.2 8.0 0.00 0.00 0.00 51 1018.0
20260905171050 34 159 6.4 8.0 0.00 0.00 0.00 51 1017.7
20260905170547 34 199 4.8 8.0 0.00 0.00 0.00 51 1018.2
20260905170042 33 208 0.0 1.6 0.00 0.00 0.00 56 1018.0
20260905165536 33 226 0.0 0.0 0.00 0.00 0.00 57 1018.1
20260905165032 34 176 3.2 4.8 0.00 0.00 0.00 57 1018.3
20260905164526 33 238 4.8 9.7 0.00 0.00 0.00 57 1018.2
20260905164021 33 124 8.0 9.7 0.00 0.00 0.00 56 1018.1
20260905163517 33 218 1.6 1.6 0.00 0.00 0.00 58 1018.3
20260905163013 32 233 0.0 0.0 0.00 0.00 0.00 65 1018.0
20260905162508 32 173 1.6 4.8 0.00 0.00 0.00 65 1018.2
20260905162003 32 195 0.0 0.0 0.00 0.00 0.00 67 1018.4
20260905161503 32 211 0.0 1.6 0.00 0.00 0.00 67 1017.9
20260905161000 32 235 0.0 0.0 0.00 0.00 0.00 67 1018.1
20260905160454 33 213 3.2 4.8 0.00 0.00 0.00 65 1018.2
20260905155954 32 209 1.6 1.6 0.00 0.00 0.00 65 1018.4
20260905155449 32 199 1.6 1.6 0.00 0.00 0.00 67 1018.4
20260905154947 31 199 4.8 4.8 0.00 0.00 0.00 68 1018.2
20260905154443 31 178 6.4 8.0 0.00 0.00 0.00 70 1018.3
20260905153938 31 206 1.6 1.6 0.00 0.00 0.00 71 1018.3
20260905153434 31 270 0.0 0.0 0.00 0.00 0.00 71 1018.2
20260905152933 31 237 0.0 1.6 0.00 0.00 0.00 72 1018.2
20260905152433 31 255 0.0 1.6 0.00 0.00 0.00 72 1018.4
20260905151928 31 213 3.2 3.2 0.00 0.00 0.00 71 1018.4
20260905151424 31 256 0.0 0.0 0.00 0.00 0.00 74 1018.3
20260905150919 31 216 0.0 0.0 0.00 0.00 0.00 73 1018.3
20260905150419 31 197 1.6 3.2 0.00 0.00 0.00 74 1018.4
20260905145915 30 175 0.0 0.0 0.00 0.00 0.00 76 1018.3
20260905145410 30 210 1.6 3.2 0.00 0.00 0.00 76 1018.3
20260905144909 30 207 4.8 4.8 0.00 0.00 0.00 78 1018.2
20260905144405 30 127 3.2 4.8 0.00 0.00 0.00 75 1018.2
20260905143904 30 208 0.0 1.6 0.00 0.00 0.00 77 1018.3
20260905143358 30 206 1.6 1.6 0.00 0.00 0.00 81 1018.2
20260905142857 30 235 0.0 0.0 0.00 0.00 0.00 82 1018.1
20260905142356 30 209 0.0 0.0 0.00 0.00 0.00 81 1018.3
20260905141852 28 208 4.8 4.8 0.00 0.00 0.00 83 1018.3
20260905141347 28 207 0.0 0.0 0.00 0.00 0.00 84 1018.2
20260905140844 28 184 3.2 3.2 0.00 0.00 0.00 85 1018.2
20260905140343 28 205 3.2 3.2 0.00 0.00 0.00 86 1017.9
20260905135842 28 203 3.2 3.2 0.00 0.00 0.00 87 1018.2
20260905135338 27 207 3.2 3.2 0.00 0.00 0.00 90 1017.9
20260905134833 27 170 3.2 4.8 0.00 0.00 0.00 92 1018.0
20260905134326 26 203 1.6 1.6 0.00 0.00 0.00 94 1018.0
20260905133821 26 196 4.8 4.8 0.00 0.00 0.00 94 1018.0
20260905133316 26 201 4.8 8.0 0.00 0.00 0.00 92 1017.9
20260905132815 26 203 4.8 4.8 0.00 0.00 0.00 94 1017.8
20260905132311 26 207 1.6 3.2 0.00 0.00 0.00 95 1017.8
20260905131811 26 203 1.6 1.6 0.00 0.00 0.00 95 1017.7
20260905131306 25 197 3.2 4.8 0.00 0.00 0.00 96 1017.9
20260905130801 25 150 4.8 4.8 0.00 0.00 0.00 98 1017.7
20260905130300 25 188 3.2 3.2 0.00 0.00 0.00 99 1017.5
20260905125755 24 219 1.6 3.2 0.00 0.00 0.00 99 1017.4
20260905125250 24 205 0.0 0.0 0.00 0.00 0.00 99 1017.5
20260905124747 23 223 0.0 0.0 0.00 0.00 0.00 99 1017.4
20260905124243 23 222 0.0 0.0 0.00 0.00 0.00 99 1017.4
20260905123737 23 221 0.0 0.0 0.00 0.00 0.00 99 1017.3
20260905123234 23 222 0.0 0.0 0.00 0.00 0.00 99 1017.6
20260905122729 23 222 0.0 0.0 0.00 0.00 0.00 99 1017.6
20260905122228 23 230 0.0 0.0 0.00 0.00 0.00 99 1017.1
20260905121724 23 230 0.0 0.0 0.00 0.00 0.00 99 1017.3
20260905121220 23 230 0.0 0.0 0.00 0.00 0.00 99 1017.1
20260905120719 23 230 0.0 0.0 0.00 0.00 0.00 99 1017.0
20260905120214 23 230 0.0 0.0 0.00 0.00 0.00 99 1017.3
20260905115714 23 230 0.0 0.0 0.00 0.00 0.00 99 1017.1
20260905115208 23 230 0.0 0.0 0.00 0.00 0.00 99 1017.2
20260905114703 23 230 0.0 0.0 0.00 0.00 0.00 99 1017.1
20260905114201 23 230 0.0 0.0 0.00 0.00 0.00 99 1017.0
20260905113701 23 230 0.0 0.0 0.00 0.00 0.00 99 1017.1
20260905113157 23 230 0.0 0.0 0.00 0.00 0.00 99 1016.6
20260905112656 23 230 0.0 0.0 0.00 0.00 0.00 99 1016.8
20260905112152 24 230 0.0 0.0 0.00 0.00 0.00 99 1016.8
20260905111652 24 230 0.0 0.0 0.00 0.00 0.00 99 1016.7
20260905111151 24 232 0.0 0.0 0.00 0.00 0.00 99 1016.8
20260905110650 24 232 0.0 0.0 0.00 0.00 0.00 99 1016.7
20260905110145 24 232 0.0 0.0 0.00 0.00 0.00 99 1016.7
20260905105641 24 232 0.0 0.0 0.00 0.00 0.00 99 1016.7
20260905105139 24 232 0.0 0.0 0.00 0.00 0.00 99 1016.6
20260905104635 24 232 0.0 0.0 0.00 0.00 0.00 99 1016.5
20260905104130 24 232 0.0 0.0 0.00 0.00 0.00 98 1016.5
20260905103625 24 232 0.0 0.0 0.00 0.00 0.00 98 1016.5
20260905103121 24 232 0.0 0.0 0.00 0.00 0.00 98 1016.8
20260905102617 24 232 0.0 0.0 0.00 0.00 0.00 98 1016.7
20260905102114 24 232 0.0 0.0 0.00 0.00 0.00 98 1016.7
20260905101611 24 232 0.0 0.0 0.00 0.00 0.00 98 1016.6
20260905101110 24 232 0.0 0.0 0.00 0.00 0.00 98 1016.6
20260905100607 24 232 0.0 0.0 0.00 0.00 0.00 97 1016.5
20260905100101 24 232 0.0 0.0 0.00 0.00 0.00 97 1016.6
20260905095555 25 232 0.0 0.0 0.00 0.00 0.00 97 1016.6
20260905095051 25 232 0.0 0.0 0.00 0.00 0.00 97 1016.5
20260905094545 25 232 0.0 0.0 0.00 0.00 0.00 97 1016.5
20260905094045 25 232 0.0 0.0 0.00 0.00 0.00 97 1016.4
20260905093545 25 232 0.0 0.0 0.00 0.00 0.00 96 1016.3
20260905093042 25 232 0.0 0.0 0.00 0.00 0.00 96 1016.5
20260905092535 25 232 0.0 0.0 0.00 0.00 0.00 96 1016.5
20260905092032 25 231 0.0 0.0 0.00 0.00 0.00 96 1016.5
20260905091530 25 230 0.0 0.0 0.00 0.00 0.00 95 1016.5
20260905091031 25 230 0.0 0.0 0.00 0.00 0.00 95 1016.7
20260905090525 25 231 0.0 0.0 0.00 0.00 0.00 94 1016.8
20260905090020 25 231 0.0 0.0 0.00 0.00 0.00 94 1016.6
20260905085519 25 228 0.0 0.0 0.00 0.00 0.00 94 1016.7
20260905085015 25 228 0.0 0.0 0.00 0.00 0.00 94 1016.7
20260905084514 25 228 0.0 0.0 0.00 0.00 0.00 93 1016.8
20260905084009 25 226 0.0 0.0 0.00 0.00 0.00 93 1016.7
20260905083504 25 226 0.0 0.0 0.00 0.00 0.00 92 1016.5
20260905083000 25 222 0.0 0.0 0.00 0.00 0.00 92 1016.6
20260905082456 25 203 3.2 3.2 0.00 0.00 0.00 92 1016.7
20260905081950 25 224 0.0 0.0 0.00 0.00 0.00 92 1016.7
20260905081446 25 223 0.0 0.0 0.00 0.00 0.00 92 1016.7
20260905080945 26 207 0.0 0.0 0.00 0.00 0.00 91 1016.8
20260905080440 26 205 1.6 1.6 0.00 0.00 0.00 91 1017.0
20260905075938 26 206 0.0 0.0 0.00 0.00 0.00 91 1016.7
20260905075433 26 222 0.0 0.0 0.00 0.00 0.00 91 1017.1
20260905074932 26 201 0.0 1.6 0.00 0.00 0.00 90 1017.2
20260905074428 26 207 0.0 1.6 0.00 0.00 0.00 90 1017.0
20260905073923 26 231 0.0 0.0 0.00 0.00 0.00 90 1017.2
20260905073418 26 225 0.0 0.0 0.00 0.00 0.00 90 1017.1
20260905072914 26 227 0.0 0.0 0.00 0.00 0.00 89 1017.1
20260905072409 26 203 0.0 0.0 0.00 0.00 0.00 89 1017.1
20260905071905 26 221 0.0 0.0 0.00 0.00 0.00 89 1017.3
20260905071401 26 205 0.0 0.0 0.00 0.00 0.00 88 1017.1
20260905070901 26 203 1.6 1.6 0.00 0.00 0.00 88 1017.2
20260905070357 26 215 0.0 1.6 0.00 0.00 0.00 88 1017.2
20260905065857 26 205 0.0 0.0 0.00 0.00 0.00 88 1017.3
20260905065355 26 206 0.0 1.6 0.00 0.00 0.00 88 1017.1
20260905064850 26 229 0.0 0.0 0.00 0.00 0.00 87 1017.2
20260905064346 26 215 1.6 1.6 0.00 0.00 0.00 86 1017.4
20260905063844 26 203 0.0 0.0 0.00 0.00 0.00 86 1017.2
20260905063341 26 224 1.6 1.6 0.00 0.00 0.00 86 1017.5
20260905062837 26 223 0.0 1.6 0.00 0.00 0.00 85 1017.3
20260905062337 27 207 0.0 0.0 0.00 0.00 0.00 85 1017.5
20260905061832 27 223 1.6 1.6 0.00 0.00 0.00 85 1017.4
20260905061331 27 207 3.2 3.2 0.00 0.00 0.00 85 1017.3
20260905060826 27 206 0.0 0.0 0.00 0.00 0.00 84 1017.3
20260905060322 27 222 3.2 3.2 0.00 0.00 0.00 84 1017.3
20260905055821 27 202 0.0 0.0 0.00 0.00 0.00 84 1017.3
20260905055316 27 177 6.4 8.0 0.00 0.00 0.00 83 1017.2
20260905054816 27 204 1.6 1.6 0.00 0.00 0.00 83 1017.2
20260905054313 27 190 3.2 3.2 0.00 0.00 0.00 83 1017.4
20260905053812 27 224 0.0 1.6 0.00 0.00 0.00 82 1017.3
20260905053307 27 210 1.6 3.2 0.00 0.00 0.00 82 1017.4
20260905052802 27 179 1.6 3.2 0.00 0.00 0.00 82 1017.2
20260905052302 27 199 1.6 3.2 0.00 0.00 0.00 81 1017.3
20260905051801 27 195 0.0 1.6 0.00 0.00 0.00 81 1017.4
20260905051258 27 196 1.6 1.6 0.00 0.00 0.00 81 1017.5
20260905050754 27 106 3.2 4.8 0.00 0.00 0.00 80 1017.5
20260905050250 27 185 3.2 4.8 0.00 0.00 0.00 80 1017.1
20260905045745 27 202 6.4 8.0 0.00 0.00 0.00 79 1017.5
20260905045240 27 201 1.6 3.2 0.00 0.00 0.00 79 1017.3
20260905044735 27 201 4.8 4.8 0.00 0.00 0.00 79 1017.4
20260905044231 27 203 1.6 1.6 0.00 0.00 0.00 79 1017.5
20260905043729 27 214 3.2 4.8 0.00 0.00 0.00 78 1017.3
20260905043229 27 176 3.2 4.8 0.00 0.00 0.00 78 1017.1
20260905042725 27 223 0.0 1.6 0.00 0.00 0.00 78 1017.4
20260905042224 28 209 3.2 3.2 0.00 0.00 0.00 77 1017.3
20260905041720 28 183 4.8 8.0 0.00 0.00 0.00 77 1017.2
20260905041215 28 207 1.6 1.6 0.00 0.00 0.00 77 1017.2
20260905040710 28 147 4.8 4.8 0.00 0.00 0.00 76 1017.0
20260905040209 28 213 1.6 1.6 0.00 0.00 0.00 76 1017.2
20260905035709 28 203 3.2 3.2 0.00 0.00 0.00 76 1017.2
20260905035205 28 213 3.2 3.2 0.00 0.00 0.00 76 1017.3
20260905034701 28 220 0.0 0.0 0.00 0.00 0.00 75 1017.1
20260905034201 28 226 3.2 3.2 0.00 0.00 0.00 75 1017.1
20260905033700 28 211 1.6 1.6 0.00 0.00 0.00 74 1017.2
20260905033156 28 199 3.2 4.8 0.00 0.00 0.00 73 1017.3
20260905032655 28 185 3.2 4.8 0.00 0.00 0.00 73 1017.0
20260905032155 28 223 6.4 9.7 0.00 0.00 0.00 72 1017.0
20260905031651 28 201 4.8 4.8 0.00 0.00 0.00 72 1016.8
20260905031147 28 192 3.2 3.2 0.00 0.00 0.00 71 1017.0
20260905030642 28 174 4.8 4.8 0.00 0.00 0.00 71 1017.0
20260905030137 28 213 6.4 8.0 0.00 0.00 0.00 71 1016.7
20260905025631 28 221 0.0 0.0 0.00 0.00 0.00 71 1016.7
20260905025128 28 192 1.6 1.6 0.00 0.00 0.00 71 1017.0
20260905024623 28 180 4.8 4.8 0.00 0.00 0.00 70 1016.7
20260905024118 28 158 4.8 4.8 0.00 0.00 0.00 70 1016.5
20260905023614 28 210 0.0 0.0 0.00 0.00 0.00 70 1016.5
20260905023108 28 165 3.2 8.0 0.00 0.00 0.00 70 1016.3
20260905022607 29 156 4.8 8.0 0.00 0.00 0.00 70 1016.5
20260905022103 29 197 3.2 3.2 0.00 0.00 0.00 69 1016.3
20260905021602 29 200 3.2 3.2 0.00 0.00 0.00 70 1016.4
20260905021058 29 198 4.8 4.8 0.00 0.00 0.00 70 1016.2
20260905020557 29 196 3.2 3.2 0.00 0.00 0.00 69 1016.4
20260905020053 30 172 6.4 8.0 0.00 0.00 0.00 68 1016.3
20260905015550 30 193 4.8 4.8 0.00 0.00 0.00 69 1016.4
20260905015045 30 243 6.4 9.7 0.00 0.00 0.00 68 1016.1
20260905014540 30 174 3.2 3.2 0.00 0.00 0.00 68 1016.2
20260905014035 30 186 3.2 3.2 0.00 0.00 0.00 67 1016.2
20260905013532 30 193 4.8 4.8 0.00 0.00 0.00 67 1016.2
20260905013027 30 168 6.4 8.0 0.00 0.00 0.00 67 1015.9
20260905012521 30 209 6.4 8.0 0.00 0.00 0.00 66 1015.9
20260905012019 30 215 8.0 11.3 0.00 0.00 0.00 65 1016.1
20260905011514 30 137 4.8 4.8 0.00 0.00 0.00 65 1015.7
20260905011010 30 179 3.2 3.2 0.00 0.00 0.00 64 1015.7
20260905010509 31 167 6.4 8.0 0.00 0.00 0.00 63 1015.6
20260905010006 31 179 3.2 3.2 0.00 0.00 0.00 63 1015.7
20260905005501 31 162 8.0 9.7 0.00 0.00 0.00 62 1015.5
20260905004956 31 221 0.0 1.6 0.00 0.00 0.00 62 1015.6
20260905004451 31 175 3.2 4.8 0.00 0.00 0.00 62 1015.6
20260905003946 31 194 0.0 0.0 0.00 0.00 0.00 62 1015.6
20260905003442 31 184 6.4 9.7 0.00 0.00 0.00 61 1015.3
20260905002937 31 160 8.0 9.7 0.00 0.00 0.00 60 1015.2
20260905002432 32 188 4.8 4.8 0.00 0.00 0.00 58 1015.3
20260905001931 32 130 4.8 4.8 0.00 0.00 0.00 50 1015.2
20260905001427 32 222 3.2 4.8 0.00 0.00 0.00 49 1015.2
20260905000921 32 210 4.8 8.0 0.00 0.00 0.00 48 1015.4
20260905000417 32 207 3.2 4.8 0.00 0.00 0.00 46 1015.0
20260904235912 32 210 6.4 9.7 0.00 0.00 0.00 45 1015.2
20260904235408 32 206 9.7 11.3 0.00 0.00 0.00 44 1015.2
20260904234908 33 176 4.8 8.0 0.00 0.00 0.00 43 1014.9
20260904234402 33 164 3.2 4.8 0.00 0.00 0.00 44 1015.1
20260904233858 33 176 4.8 4.8 0.00 0.00 0.00 44 1015.0
20260904233354 33 212 8.0 11.3 0.00 0.00 0.00 43 1015.0
20260904232850 33 156 6.4 9.7 0.00 0.00 0.00 43 1014.8
20260904232346 33 161 4.8 8.0 0.00 0.00 0.00 43 1014.5
20260904231843 33 181 6.4 9.7 0.00 0.00 0.00 43 1014.8
20260904231342 33 195 1.6 1.6 0.00 0.00 0.00 46 1015.1
20260904230838 33 160 8.0 9.7 0.00 0.00 0.00 45 1015.0
20260904230336 33 141 8.0 11.3 0.00 0.00 0.00 45 1014.9
20260904225832 34 182 3.2 3.2 0.00 0.00 0.00 45 1015.3
20260904225330 34 184 8.0 11.3 0.00 0.00 0.00 44 1015.1
20260904224829 34 117 8.0 11.3 0.00 0.00 0.00 44 1015.3
20260904224325 34 189 6.4 8.0 0.00 0.00 0.00 41 1015.2
20260904223824 33 214 6.4 8.0 0.00 0.00 0.00 47 1015.4